Location: Corralito
(10.5000°N, 67.1333°W)
Time: 07:26:57
(UTC+00:00)

USA 229 DEB - Pass Details

Date: 18 April 2024
Orbit: 892 x 1319 km, 63.4° (Epoch: 18 May)

Event Time Altitude Azimuth Distance (km) Brightness Sun altitude
Rises 23:15:14 0° 187° (S) 3,511 6.3 -9.4°
Reaches altitude 10° 23:17:54 10° 179° (S) 2,556 5.6 -10.0°
Maximum altitude 23:23:18 38° 112° (ESE) 1,328 3.7 -11.3°
Drops below altitude 10° 23:28:47 10° 45° (NE) 2,608 5.5 -12.6°
Sets 23:31:31 0° 37° (NE) 3,591 6.2 -13.3°
